Preview of NWS' New Version of Forecast
This preview is not operational and should not be used for support decisions.

Regional Weather Roundup (RWR)

Issued by Gray - Portland, ME (GYX)

                            
000
ASUS41 KGYX 210205
RWRGYX
WEATHER ROUNDUP FOR MAINE AND NEW HAMPSHIRE
NATIONAL WEATHER SERVICE GRAY ME
1000 PM EDT SAT APR 20 2019

MEZ002-005-006-010-012-015-018-020-021-024-026-027-029-210300-
MAINE
  
CITY           SKY/WX    TMP DP  RH WIND       PRES   REMARKS
PORTLAND       LGT RAIN  56  55  97 S9        29.98S VSB 1            
SANFORD        LGT RAIN  62  61  96 S10G18    29.97S                  
BAR HARBOR     CLOUDY    54  53  97 S20       30.06S FOG              
WISCASSET      CLOUDY    54  53  97 VRB5      30.03R FOG              
ROCKLAND       LGT RAIN  50  50 100 VRB6      30.05R VSB 3/4          
FRYEBURG       CLOUDY    60  59  96 CALM      29.95S                  
LEWISTONAUBURN LGT RAIN  55  55 100 SE7       29.98F FOG              
AUGUSTA        FOG       55  55 100 SE7       30.01R VSB 1/4          
WATERVILLE     LGT RAIN  47  47 100 CALM      29.99F FOG              
BANGOR         FOG       54  54 100 S15       30.02R VSB 1/2          
GREENVILLE       N/A     42  41  96 SE9       29.96F                  
MILLINOCKET    CLOUDY    41  39  93 NW5       30.07R FOG              
HOULTON        CLOUDY    39  38  96 CALM      30.07S FOG              
PRESQUE ISLE   CLOUDY    40  38  93 SE6       30.09R                  
FRENCHVILLE    CLOUDY    40  36  86 SE10      30.07S                  
CARIBOU        CLOUDY    40  37  89 E6        30.06S                  
$$

NHZ002-005-008-009-011-012-014-210300-
NEW HAMPSHIRE
  
CITY           SKY/WX    TMP DP  RH WIND       PRES   REMARKS
PORTSMOUTH     FOG       58  58  98 SE14G22   29.95R VSB 1            
ROCHESTER      CLOUDY    62  62 100 SE12      29.94R                  
NASHUA         CLOUDY    65  64  97 VRB6      29.93R                  
MANCHESTER     CLOUDY    66  62  87 S14G20    29.91R                  
CONCORD        CLOUDY    64  60  87 S10       29.93R                  
LACONIA        CLOUDY    66  61  84 S9G18     29.94R                  
PLYMOUTH       CLOUDY    64  59  86 E5        29.91R                  
BERLIN         CLOUDY    63  59  87 VRB5G17   29.87F                  
WHITEFIELD     CLOUDY    69  56  62 W9        29.88R                  
JAFFREY        MOCLDY    64  58  80 S13G26    29.92R                  
KEENE          MOCLDY    65  59  81 S15G22    29.88S                  
LEBANON        CLOUDY    68  57  68 S9        29.86R                  
MT WASHINGTON  FOG       46  46 100 S48G66      N/A  VSB 1/16         
$$

VTZ005-007-008-210300-
VERMONT
  
CITY           SKY/WX    TMP DP  RH WIND       PRES   REMARKS
ST JOHNSBURY     N/A     67  60  78 MISG      29.82R                  
MONTPELIER     FAIR      63  58  83 S20G26    29.86R                  
BURLINGTON     FOG       45  43  93 CALM      29.79R VSB 1            
$$

MAZ007-012-024-CTZ003-RIZ002-NYZ038-NYZ072-210300-
SOUTHERN NEW ENGLAND AND NY
  
CITY           SKY/WX    TMP DP  RH WIND       PRES   REMARKS
BOSTON         CLOUDY    62  59  90 S15       29.95R                  
WORCESTER      FAIR      60  57  89 S18G24    29.92F                  
NANTUCKET      LGT RAIN  52  51  97 SE14      30.03F FOG              
PROVIDENCE     CLOUDY    56  56 100 S14       29.96R FOG              
HARTFORD       MOCLDY    61  56  83 S9        29.90R                  
ALBANY         MOCLDY    64  50  60 S13G29    29.82R                  
NEW YORK CITY  MOCLDY    55  48  77 S13       29.86R                  
$$

ANZ081-ANZ082-ANZ150-NHZ014-MEZ023>029-210300-
COASTAL MARINE OBSERVATIONS
  
STATION/POSITION TIME  TEMP    WIND        PRES    WAVE
                       AIR SEA DIR/SP/G            HT/PER
                 (UTC) (F)     (DEG/KT/KT) (MB)    (FT/S)
ISLE OF SHOALS   0100   52     160/ 27/ 30 1013.9R
JEFFREYS LEDGE   0108      42                N/A     7/10
CASHES LEDGE BUO 0150   47 42              1017.1R   7/ 6
$$

.............KEY..............
   WCI - WIND CHILL
   TC  - TEMPERATURE IN CELSIUS
   VSB - VISIBILITY IN MILES
   HX  - HEAT INDEX
   FAIR- INDICATES FEW OR NO CLOUDS BELOW 12,000 FT, WITH NO 
         SIGNIFICANT WEATHER AND/OR OBSTRUCTIONS TO VISIBILITY.